• In Hungary
  • List of Countries
  • For 7 days
  • Water Temperature
  • Satellite Maps
  • Weather Map
  • News
  • Weather Widgets
  • user-avatar
    Login

    Hourly Weather Shumen

    Today, 11 December, Monday

    Time Temperature Precipitation Wind Pressure Humidity
    00:00 -2°C° 0 mm 2 mps 731 mmHg 64%
    01:00 -2°C° 0 mm 2 mps 731 mmHg 62%
    02:00 -2°C° 0 mm 2 mps 730 mmHg 58%
    03:00 -2°C° 0 mm 2 mps 730 mmHg 57%
    04:00 -1°C° 0 mm 2 mps 730 mmHg 56%
    05:00 -1°C° 0 mm 3 mps 731 mmHg 55%
    06:00 -1°C° 0 mm 3 mps 731 mmHg 56%
    07:00 -1°C° 0 mm 2 mps 731 mmHg 56%
    08:00 -1°C° 0 mm 2 mps 730 mmHg 56%
    09:00 +2°C° 0 mm 2 mps 730 mmHg 52%
    10:00 +4°C° 0 mm 2 mps 731 mmHg 48%
    11:00 +5°C° 0 mm 2 mps 731 mmHg 43%
    12:00 +5°C° 0 mm 3 mps 731 mmHg 44%
    13:00 +7°C° 0 mm 3 mps 731 mmHg 44%
    14:00 +8°C° 0 mm 3 mps 731 mmHg 44%
    15:00 +7°C° 0 mm 3 mps 731 mmHg 50%
    16:00 +5°C° 0 mm 3 mps 731 mmHg 55%
    17:00 +5°C° 0 mm 2 mps 731 mmHg 60%
    18:00 +5°C° 0 mm 2 mps 731 mmHg 64%
    19:00 +5°C° 0 mm 2 mps 731 mmHg 67%
    20:00 +5°C° 0 mm 2 mps 731 mmHg 71%
    21:00 +5°C° 0 mm 2 mps 732 mmHg 73%
    22:00 +5°C° 0 mm 2 mps 732 mmHg 76%
    23:00 +5°C° 0 mm 2 mps 732 mmHg 78%

    Tomorrow, 12 December, Tuesday

    Time Temperature Precipitation Wind Pressure Humidity
    00:00 +4°C° 0 mm 2 mps 732 mmHg 79%
    01:00 +4°C° 0 mm 2 mps 732 mmHg 80%
    02:00 +4°C° 0 mm 2 mps 732 mmHg 82%
    03:00 +4°C° 0 mm 2 mps 732 mmHg 81%
    04:00 +4°C° 0 mm 2 mps 732 mmHg 81%
    05:00 +3°C° 0 mm 2 mps 732 mmHg 81%
    06:00 +3°C° 0 mm 2 mps 732 mmHg 80%
    07:00 +3°C° 0 mm 2 mps 732 mmHg 79%
    08:00 +3°C° 0 mm 2 mps 732 mmHg 78%
    09:00 +5°C° 0 mm 2 mps 733 mmHg 70%
    10:00 +7°C° 0 mm 2 mps 733 mmHg 62%
    11:00 +9°C° 0 mm 2 mps 733 mmHg 55%
    12:00 +10°C° 0 mm 2 mps 733 mmHg 51%
    13:00 +12°C° 0 mm 1 mps 733 mmHg 47%
    14:00 +13°C° 0 mm 1 mps 733 mmHg 44%
    15:00 +12°C° 0 mm 1 mps 733 mmHg 48%
    16:00 +10°C° 0 mm 1 mps 733 mmHg 52%
    17:00 +9°C° 0 mm 1 mps 733 mmHg 56%
    18:00 +9°C° 0 mm 1 mps 733 mmHg 57%
    19:00 +8°C° 0 mm 1 mps 733 mmHg 57%
    20:00 +8°C° 0 mm 1 mps 733 mmHg 57%
    21:00 +8°C° 0 mm 1 mps 733 mmHg 56%
    22:00 +7°C° 0 mm 1 mps 733 mmHg 56%
    23:00 +7°C° 0 mm 1 mps 733 mmHg 55%

    Day after tomorrow, 13 December, Wednesday

    Time Temperature Precipitation Wind Pressure Humidity
    00:00 +7°C° 0 mm 1 mps 733 mmHg 55%
    01:00 +7°C° 0 mm 1 mps 733 mmHg 55%
    02:00 +7°C° 0 mm 1 mps 733 mmHg 54%
    03:00 +7°C° 0 mm 1 mps 733 mmHg 55%
    04:00 +6°C° 0 mm 1 mps 732 mmHg 55%
    05:00 +6°C° 0 mm 1 mps 732 mmHg 56%
    06:00 +6°C° 0 mm 1 mps 732 mmHg 56%
    07:00 +6°C° 0 mm 1 mps 733 mmHg 57%
    08:00 +6°C° 0 mm 1 mps 733 mmHg 57%
    09:00 +8°C° 0 mm 1 mps 733 mmHg 53%
    10:00 +9°C° 0 mm 1 mps 733 mmHg 49%
    11:00 +11°C° 0 mm 1 mps 733 mmHg 45%
    12:00 +12°C° 0 mm 1 mps 733 mmHg 44%
    13:00 +13°C° 0 mm 1 mps 732 mmHg 43%
    14:00 +14°C° 0 mm 1 mps 732 mmHg 42%
    15:00 +12°C° 0 mm 1 mps 732 mmHg 47%
    16:00 +11°C° 0 mm 1 mps 732 mmHg 52%
    17:00 +10°C° 0 mm 1 mps 731 mmHg 58%
    18:00 +9°C° 0 mm 1 mps 731 mmHg 59%
    19:00 +9°C° 0 mm 1 mps 731 mmHg 60%
    20:00 +9°C° 0 mm 1 mps 731 mmHg 62%
    21:00 +9°C° 0 mm 1 mps 731 mmHg 62%
    22:00 +9°C° 0 mm 1 mps 731 mmHg 63%
    23:00 +9°C° 0 mm 1 mps 730 mmHg 63%

    14 December, Thursday

    Time Temperature Precipitation Wind Pressure Humidity
    00:00 +8°C° 0 mm 1 mps 730 mmHg 64%
    01:00 +8°C° 0 mm 1 mps 730 mmHg 66%
    02:00 +8°C° 0 mm 1 mps 730 mmHg 67%
    03:00 +8°C° 0 mm 1 mps 730 mmHg 69%
    04:00 +8°C° 0 mm 1 mps 729 mmHg 72%
    05:00 +8°C° 0 mm 1 mps 729 mmHg 74%
    06:00 +7°C° 0.2 mm 1 mps 729 mmHg 78%
    07:00 +7°C° 0.2 mm 1 mps 730 mmHg 82%
    08:00 +7°C° 0.2 mm 1 mps 730 mmHg 86%
    09:00 +7°C° 0.1 mm 2 mps 730 mmHg 83%
    10:00 +7°C° 0.1 mm 2 mps 730 mmHg 81%
    11:00 +8°C° 0.1 mm 2 mps 730 mmHg 78%
    12:00 +9°C° 0 mm 2 mps 730 mmHg 73%
    13:00 +10°C° 0 mm 3 mps 730 mmHg 69%
    14:00 +11°C° 0 mm 3 mps 730 mmHg 64%
    15:00 +10°C° 0 mm 2 mps 729 mmHg 67%
    16:00 +9°C° 0 mm 2 mps 729 mmHg 70%
    17:00 +8°C° 0 mm 1 mps 729 mmHg 74%
    18:00 +8°C° 0 mm 1 mps 729 mmHg 75%
    19:00 +8°C° 0 mm 1 mps 729 mmHg 76%
    20:00 +7°C° 0 mm 1 mps 729 mmHg 78%
    21:00 +7°C° 0 mm 1 mps 729 mmHg 80%
    22:00 +6°C° 0 mm 2 mps 729 mmHg 81%
    23:00 +6°C° 0 mm 2 mps 729 mmHg 83%

    15 December, Friday

    Time Temperature Precipitation Wind Pressure Humidity
    00:00 +6°C° 0 mm 2 mps 728 mmHg 85%
    01:00 +6°C° 0 mm 2 mps 728 mmHg 86%
    02:00 +6°C° 0 mm 2 mps 728 mmHg 88%
    03:00 +5°C° 0 mm 2 mps 728 mmHg 88%
    04:00 +5°C° 0 mm 2 mps 728 mmHg 88%
    05:00 +5°C° 0 mm 2 mps 728 mmHg 88%
    06:00 +5°C° 0 mm 2 mps 728 mmHg 87%
    07:00 +5°C° 0 mm 2 mps 728 mmHg 87%
    08:00 +5°C° 0 mm 2 mps 728 mmHg 87%
    09:00 +7°C° 0 mm 2 mps 729 mmHg 80%
    10:00 +8°C° 0 mm 2 mps 729 mmHg 73%
    11:00 +10°C° 0 mm 2 mps 729 mmHg 66%
    12:00 +12°C° 0 mm 2 mps 729 mmHg 63%
    13:00 +12°C° 0 mm 3 mps 728 mmHg 60%
    14:00 +13°C° 0 mm 3 mps 728 mmHg 57%
    15:00 +12°C° 0 mm 3 mps 727 mmHg 63%
    16:00 +10°C° 0 mm 4 mps 727 mmHg 69%
    17:00 +8°C° 0 mm 4 mps 726 mmHg 75%
    18:00 +8°C° 0 mm 5 mps 726 mmHg 77%
    19:00 +8°C° 0 mm 5 mps 726 mmHg 79%
    20:00 +9°C° 0 mm 6 mps 726 mmHg 81%
    21:00 +8°C° 0 mm 6 mps 725 mmHg 81%
    22:00 +8°C° 0 mm 6 mps 725 mmHg 82%
    23:00 +8°C° 0 mm 6 mps 725 mmHg 82%

    16 December, Saturday

    Time Temperature Precipitation Wind Pressure Humidity
    00:00 +8°C° 0 mm 6 mps 725 mmHg 82%
    01:00 +8°C° 0 mm 6 mps 724 mmHg 82%
    02:00 +8°C° 0 mm 5 mps 724 mmHg 82%
    03:00 +8°C° 0 mm 5 mps 724 mmHg 82%
    04:00 +8°C° 0 mm 5 mps 724 mmHg 82%
    05:00 +7°C° 0 mm 5 mps 724 mmHg 82%
    06:00 +7°C° 0 mm 4 mps 724 mmHg 83%
    07:00 +7°C° 0 mm 4 mps 724 mmHg 84%
    08:00 +7°C° 0 mm 4 mps 725 mmHg 85%
    09:00 +10°C° 0 mm 4 mps 725 mmHg 78%
    10:00 +11°C° 0 mm 4 mps 725 mmHg 72%
    11:00 +13°C° 0 mm 4 mps 726 mmHg 66%
    12:00 +13°C° 0 mm 4 mps 726 mmHg 63%
    13:00 +14°C° 0 mm 4 mps 726 mmHg 60%
    14:00 +14°C° 0 mm 4 mps 726 mmHg 57%
    15:00 +13°C° 0 mm 3 mps 726 mmHg 62%
    16:00 +12°C° 0 mm 3 mps 726 mmHg 66%
    17:00 +10°C° 0 mm 3 mps 727 mmHg 71%
    18:00 +9°C° 0.2 mm 3 mps 727 mmHg 74%
    19:00 +9°C° 0.2 mm 3 mps 727 mmHg 76%
    20:00 +8°C° 0.2 mm 3 mps 728 mmHg 79%
    21:00 +7°C° 0.9 mm 3 mps 728 mmHg 81%
    22:00 +7°C° 0.9 mm 3 mps 728 mmHg 83%
    23:00 +5°C° 0.9 mm 3 mps 728 mmHg 85%
    Show more